sat.trackr.live / text

‹ back to catalog

ONEWEB-0311

NORAD 49097 · 2021-075Y

PAYLOAD ACTIVE UNKNOWN

§ Identity

Operator
Country
UK
Launch date
2021-08-21
Launch site
TYMSC
Launch vehicle
Mass (kg)
RCS (m²)

Purposes: comms

External: N2YO · Heavens-Above · Gunter

§ Orbital elements

Epoch: 2026-05-25T02:05:27.129120Z

Period
109.29 min
Inclination
87.9157°
Eccentricity
0.0002212
Mean motion
13.17648062 rev/d
Perigee alt
1,192.0 km
Apogee alt
1,195.4 km
Semi-major
7,571.9 km
B*
9.3487e-5
RAAN
10.4564°
Arg perigee
90.7783°
Mean anomaly
269.3602°
Rev number
23,058

§ Raw data

ONEWEB-03111 49097U 21075Y   26145.08711955  .00000049  00000+0  93487-4 0  99952 49097  87.9157  10.4564 0002212  90.7783 269.3602 13.17648062230583

JSON: /api/v1/satellites/49097 · /tle

For live sub-satellite position, see the globe view (requires WebGL).

§ Visibility from observer

Set your observer location to see the next 7 days of passes ≥ 10°. The values pass through the URL so the page stays shareable.

No JS? Fill the form by hand. The geolocation button needs JavaScript.